Zurück zum Katalog

STARLINK-32761

AktivKommunikationVLEO
NORAD 62749·PAYLOAD·🇺🇸 United States

Gestartet Jan 21, 2025 von Cape Canaveral Space Force Station

Loading…

Nächste Überflüge (nächste 24 Stunden)

TLE

AktuellSource: CelesTrak SupGP

Epoche: Sep 15, 2026, 03:40 UTC

1 62749C 25014Q   26258.15326389  .00024712  00000+0  89532-3 0  2583
2 62749  43.0030 167.6991 0001387 277.6578 141.2590 15.27557064    15

Verfolge STARLINK-32761 in Echtzeit mit AllMySat

Download on the App Store